Flag for China Weather past 2 weeks in Changchun, Jilin, China

Now
16 °F

Ice fog.


Feels Like: 7 °F
Forecast: -8 / 9 °F
Wind: 6 mph from South

Location: Changchun Airport

Current Time: Jan 29, 2015 at 4:54:45 PM

Latest Report: Jan 29, 2015 at 4:00 PM


Visibility: 3 mi

Pressure: 30.21 "Hg

Humidity: 48%

Dew point: 0 °F

Location of ChangchunLocation

Historic Weather in Changchun — Graph

°F

Changchun temperature yesterday

Maximum temperature yesterday: 10 °F (at 1:00 PM)
Minimum temperature yesterday: -15 °F (at 6:00 AM)
Average temperature yesterday: -1 °F

Past Weeks' High & Low Weather Summary

 TemperatureHumidityPressure
High28 °F (Jan 25, 3:00 PM)93% (Jan 18, 10:00 PM)30.54 "Hg (Jan 18, 10:00 PM)
Low-15 °F (Jan 28, 6:00 AM)35% (Jan 27, 12:00 PM)29.86 "Hg (Jan 18, 6:00 PM)
Average8 °F66%30.27 "Hg
* Reported Jan 14 3:00 PM — Jan 29 3:00 PM, Changchun, Weather by CustomWeather, © 2014

Note: Actual official high and low records may vary slightly from our data, if they occured in-between our weather recording intervals... More about our weather records

Advertising

Changchun weather history for previous 24 hours

 ConditionsComfort  
Time TempWeatherWind HumidityBarometerVisibility
3:00 PM
Jan 29
16 °FIce fog.8 mph48%30.21 "Hg3 mi
2:00 PM14 °FIce fog.8 mph48%30.21 "Hg3 mi
1:00 PM14 °FIce fog.8 mph48%30.21 "Hg3 mi
12:00 PM12 °FIce fog.8 mph48%30.24 "Hg3 mi
11:00 AM10 °FIce fog.6 mph47%30.27 "Hg3 mi
10:00 AM7 °FIce fog.3 mph51%30.27 "Hg3 mi
9:00 AM3 °FIce fog.6 mph55%30.30 "Hg3 mi
8:00 AM3 °FIce fog.3 mph55%30.30 "Hg3 mi
7:00 AM1 °FIce fog.6 mph60%30.30 "Hg3 mi
6:00 AM0 °FClear.6 mph60%30.30 "Hg4 mi
5:00 AM0 °FClear.8 mph65%30.30 "Hg4 mi
4:00 AM-2 °FIce fog.6 mph65%30.36 "Hg2 mi
3:00 AM-4 °FClear.3 mph65%30.42 "Hg4 mi
2:00 AM-4 °FClear.8 mph71%30.42 "Hg4 mi
1:00 AM-2 °FIce fog.8 mph65%30.45 "Hg3 mi
12:00 AM-2 °FIce fog.6 mph65%30.45 "Hg3 mi
11:00 PM
Jan 28
-2 °FIce fog.6 mph65%30.48 "Hg3 mi
10:00 PM-2 °FIce fog.3 mph65%30.48 "Hg3 mi
9:00 PM0 °FIce fog.3 mph65%30.48 "Hg3 mi
8:00 PM3 °FIce fog.6 mph55%30.48 "Hg3 mi
7:00 PM3 °FIce fog.6 mph55%30.48 "Hg3 mi
6:00 PM5 °FIce fog.6 mph60%30.48 "Hg3 mi
5:00 PM7 °FIce fog.6 mph56%30.48 "Hg3 mi
4:00 PM10 °FClear.6 mph47%30.48 "Hg4 mi
Weather by CustomWeather, © 2014

See weather overviewHow to use our weather pages